Location: Batang Balui
(2.7000°N, 113.7833°E)
Time: 23:49:02
(UTC+00:00)

BlueWalker 3 - Visible Passes

Search period start: 06 December 2022 00:00
Search period end: 16 December 2022 00:00
Orbit: 501 x 518 km, 53.2° (Epoch: 06 December)

Date Brightness Start Highest point End Pass type
(mag) Time Alt. Az. Time Alt. Az. Time Alt. Az.
14 Dec 3.0 11:07:02 10° N 11:10:08 23° NE 11:11:20 20° E visible
14 Dec 5.2 12:46:22 10° W 12:46:30 10° W 12:46:30 10° W visible
15 Dec 2.9 10:48:27 10° N 10:51:42 25° NE 10:54:56 10° ESE visible
15 Dec 5.1 12:28:13 10° W 12:30:08 13° SW 12:32:03 10° SSW visible
